Ерема

Россия / Иркутская область     60°21′51″N   107°45′46″E
темп.,
°C
ветер,
м/с
пор.,
м/с
влажн.,
%
обл.,
%
осадки,
мм/ч
давл.,
гПа
погр.,
м
25 февраля, чт
чт2523:00−25с2299100 0.1 103145
02:00−29с229997 0.1 103221
05:00−32ссз1210010 0.0 103219
08:00−33с121009 0.0 103319
11:00−26св12920 0.0 1032196
14:00−21в128537 0.0 1031464
17:00−22всв249198 0.0 1030135
20:00−26в239696 0.0 102929
26 февраля, пт
пт2623:00−26вюв31095100 0.0 1026224
02:00−23в299399 0.0 1022374
05:00−23в3891100 0.0 1021387
08:00−24всв2294100 0.0 102050
11:00−21ююз1391100 0.1 1021370
14:00−18зюз3685100 0.1 1020804
17:00−18зюз4786100 0.1 1021932
20:00−23зюз2392100 0.1 102536
27 февраля, сб
сб2723:00−23зюз2691100 0.0 1026161
02:00−26юз229593 0.0 102720
05:00−28ююз239594 0.0 102827
08:00−28ююз229897 0.1 102832
11:00−23юз1393100 0.0 1029319
14:00−21з3584100 0.1 10281137
17:00−22зюз3681100 0.1 1030984
20:00−25юз2493100 0.1 103193
28 февраля, вс
вс2823:00−28юз259488 0.0 103289
02:00−30юз239777 0.0 103337
05:00−29ююз2597100 0.0 1033149
08:00−29юз2698100 0.1 1034171
11:00−26зюз3688100 0.0 1034734
14:00−24зюз3583100 0.1 1033998
17:00−24зюз3586100 0.1 10341210
20:00−28зюз2297100 0.1 103519
1 марта, пн
пн123:00−30зюз229792 0.0 103620
02:00−31зюз229889 0.0 103619
05:00−33юз229884 0.0 103721
08:00−33юз229889 0.0 103725
11:00−28юз2493100 0.0 1036368
14:00−25юз2486100 0.1 1034785
17:00−25юз2390100 0.1 1033683
20:00−27ю1199100 0.1 103219